Weather in Pezmeg

Russia / Komi Republic     61°49′31″N   51°42′52″E
temp.,
°C
wind,
m/s
gust,
m/s
humid.,
%
clouds,
%
prec.,
mm/h
press.,
hPa
HPBL,
m
6 march, sat
sat600:00−17nw239893 0.1 100367
03:00−17wnw249895 0.2 1005144
06:00−18wnw2597100 0.2 1006220
09:00−17wnw249299 0.3 1007420
12:00−15wnw3486100 0.1 1007708
15:00−15w3586100 0.1 1007761
18:00−18w1296100 0.1 100820
21:00−20wsw129999 0.1 100820
7 march, sun
sun700:00−22sw229991 0.0 100720
03:00−23ssw229990 0.1 100720
06:00−24s229979 0.0 100721
09:00−19ssw239242 0.0 1006225
12:00−13s238492 0.0 1006514
15:00−12sse238696 0.1 1005692
18:00−16ese2296100 0.1 100530
21:00−19ese239895 0.1 100435
8 march, mon
mon800:00−19e239884 0.1 100377
03:00−20e369891 0.1 1003150
06:00−21ene3798100 0.0 1002234
09:00−19ene3795100 0.1 1002275
12:00−15ene4890100 0.0 1001493
15:00−14ne4889100 0.1 1002612
18:00−16ne4993100 0.0 1003580
21:00−18ne4994100 0.1 1004448
9 march, tue
tue900:00−21nne4996100 0.0 1005357
03:00−24nne3896100 0.1 1007302
06:00−27nne3896100 0.0 1009278
09:00−27nne359299 0.0 1011316
12:00−23n359095 0.0 1012443
15:00−22n368997 0.0 1013506
18:00−26n249686 0.0 101585
21:00−28n239845 0.0 101751
10 march, wed
wed1000:00−30n12980 0.0 101719
03:00−31nw12980 0.0 101819
06:00−31wnw22990 0.0 101820
09:00−25w24940 0.0 1017234
12:00−19wsw36860 0.0 1015386
15:00−16wsw478924 0.0 1013520
18:00−18wsw41095100 0.0 1012459
21:00−18wsw3896100 0.1 1012377